Location: Smithsonian NASM Public Observatory
(38.8879°N, 77.0185°W)
Time: 10:01:40
(UTC-05:00)

Daily predictions for brighter satellites

Satellite Brightness Start Highest point End
(mag) Time Altitude Azimuth Time Altitude Azimuth Time Altitude Azimuth
Aureole 3 4.4 17:08:08 10° N 17:13:04 82° W 17:19:22 10° S
Meteor 2-12 Rocket 4.5 17:09:14 10° S 17:15:20 87° E 17:21:26 10° N
COSMOS 2406 3.9 17:10:29 10° NNW 17:16:08 62° WSW 17:21:43 10° S
MSX 4.2 17:11:02 10° S 17:16:47 76° WSW 17:22:35 10° NNW
ERBS 2.6 17:14:39 10° NW 17:18:02 74° SW 17:21:26 10° SE
YAOGAN 1 3.6 17:14:36 10° SE 17:18:08 25° ENE 17:21:41 10° NNE
COSMO-SKYMED 1 4.0 17:16:20 10° NE 17:19:29 19° E 17:22:35 10° SE
CSL-04 Debris 4.2 17:15:26 10° SSE 17:20:47 63° ENE 17:26:08 10° N
BREEZE-M DEB (TANK) 1.9 17:25:36 10° SW 17:27:41 52° SE 17:29:58 11° ENE
Cosmos 2346 Rocket 4.4 17:22:16 10° N 17:28:25 74° E 17:34:36 10° SSE
Cosmos 1833 Rocket 3.4 17:24:38 10° N 17:29:38 32° ENE 17:34:37 10° ESE
Tsikada Rocket 4.3 17:25:31 10° N 17:31:40 75° W 17:37:49 10° S
USA 161 4.2 17:34:43 10° WNW 17:35:11 10° WNW 17:35:39 10° W
Cosmos 2297 4.1 17:30:00 10° S 17:35:19 42° ESE 17:40:42 10° NE
Meteor 1-14 Rocket 4.2 17:30:06 10° N 17:35:46 74° E 17:41:18 10° SSE
BREEZE M DEB (TANK) 4.4 17:35:21 10° WNW 17:37:46 19° SW 17:39:32 10° S
Cosmos 2221 Rocket 4.3 17:34:31 10° SSE 17:38:26 32° E 17:42:22 10° NNE
Cosmos 2278 Rocket 2.5 17:33:04 10° SSW 17:38:44 73° WNW 17:44:26 10° NNE
Cosmos 1703 Rocket 3.7 17:34:38 10° S 17:39:00 55° E 17:43:21 10° NNE
CORIOLIS 4.1 17:34:38 10° SSE 17:40:03 72° ENE 17:45:29 10° N
CZ-2C R/B 4.3 17:36:27 10° SSW 17:41:00 36° W 17:45:42 10° NNW
IRS-1A Rocket 4.3 17:43:50 10° SSE 17:49:36 70° ENE 17:55:18 10° N
Cosmos 1763 Rocket 3.9 17:45:18 10° NNW 17:50:27 66° WSW 17:55:30 10° S
Meteor 1-28 Rocket 3.3 17:50:29 10° N 17:54:11 75° WNW 17:57:52 10° SSW
Cosmos 44 Rocket 4.1 17:50:57 10° NNW 17:55:16 31° NE 17:58:41 15° ESE
CZ-2C R/B 3.7 17:51:13 10° NNE 17:55:44 88° WNW 18:00:18 10° SSW
Okean 2 Rocket 3.6 17:53:02 10° N 17:57:13 36° ENE 18:01:23 10° SE
Cosmos 1606 2.6 17:55:53 10° S 17:59:40 86° E 18:03:27 10° N
Cosmos 1441 Rocket 4.1 17:56:46 10° SSE 18:00:14 30° E 18:01:48 22° NE
GPS 2-05 Rocket1 4.0 17:58:36 10° SW 18:01:21 27° SSE 18:02:46 20° ESE
Cosmos 292 Rocket 4.3 17:58:31 10° N 18:02:54 35° ENE 18:07:14 10° SE
Cosmos 1464 Rocket 3.9 17:57:35 10° S 18:03:36 63° E 18:09:39 10° NNE
Cosmos 405 3.8 18:01:52 10° NNE 18:05:03 29° ENE 18:08:11 10° SE
Cosmos 1908 Rocket 4.0 18:01:14 10° NNW 18:05:32 63° W 18:09:48 10° S
Landsat 4 3.8 18:02:38 10° N 18:06:26 77° WNW 18:10:13 10° SSW
Cosmos 1484 Rocket 4.3 18:02:59 10° SSW 18:06:36 39° W 18:10:19 10° NNW
SKYMED 2 3.5 18:03:23 10° NNE 18:07:44 68° ESE 18:12:02 10° S
CZ-4 R/B 2.0 18:04:29 10° S 18:08:16 56° W 18:12:04 10° NNW
MOS 1 4.2 18:05:06 10° SSE 18:10:44 69° ENE 18:16:25 10° N
MTI 3.8 18:07:34 10° N 18:10:47 78° WNW 18:14:00 10° SSW
SL-27 R/B 3.0 18:08:34 10° NNW 18:11:51 55° WSW 18:15:08 10° S
EO 1 Del DPAF 3.1 18:08:17 10° NNE 18:12:07 73° ESE 18:15:55 10° S
METEOR-M 4.0 18:08:25 10° SSE 18:13:44 82° ENE 18:19:06 10° N
Cosmos 540 Rocket 3.3 18:08:56 10° NNW 18:14:07 76° ENE 18:19:16 10° SSE
MONITOR-E 4.0 18:12:00 10° SSE 18:15:01 66° ENE 18:18:02 10° N
USA 234 3.3 18:11:19 20° NE 18:15:57 63° SE 18:22:25 10° SSW
Cosmos 968 Rocket 3.9 18:12:38 10° S 18:17:26 40° ESE 18:19:33 28° NE
Cosmos 1503 Rocket 4.1 18:12:41 10° SSW 18:17:57 76° WNW 18:23:12 10° NNE
Cosmos 44 3.3 18:14:49 10° NNW 18:19:26 53° NE 18:22:41 20° SE
Cosmos 2082 Rocket 2.1 18:14:23 10° NNW 18:20:06 80° ENE 18:25:45 10° SSE
Meteor 2-6 Rocket 4.1 18:16:26 10° S 18:21:52 90° E 18:27:28 10° N
ERS-2 2.5 18:22:11 10° S 18:25:49 65° WSW 18:29:29 10° NNW
Okean 1-7 3.6 18:23:15 10° SSW 18:27:33 59° W 18:31:55 10° N
BREEZE-M DEB (TANK) 3.8 18:25:57 10° NNW 18:27:36 22° NNE 18:27:36 22° NNE
Cosmos 1602 3.5 18:24:52 10° N 18:28:42 69° E 18:32:32 10° SSE
ALOS 2.1 18:26:47 10° SSE 18:31:26 75° ENE 18:36:06 10° N
Cosmos 1782 4.4 18:29:46 10° SSW 18:33:30 36° WNW 18:37:14 10° N
DMSP B5D1-3 4.4 18:28:50 11° NNE 18:33:53 74° ESE 18:39:00 10° S
Cosmos 405 Rocket 2.7 18:30:45 10° SSW 18:34:32 75° W 18:36:33 26° N
FengYun 1-2 T 4.3 18:39:45 30° SE 18:42:10 49° ENE 18:47:30 10° N
Gblst 52 Del rocket 4.4 18:48:16 10° SSW 18:53:35 49° SE 18:53:48 48° SE
Meteor 1-27 Rocket 3.9 18:48:36 10° SSW 18:54:29 77° W 19:00:28 10° N
CZ-4C R/B 2.9 18:47:41 10° NNW 18:54:52 64° NE 18:58:04 38° ESE
COSMO-SKYMED 1 4.2 18:51:46 10° N 18:55:42 34° WNW 18:59:36 10° SW
FENGYUN 3A 3.9 18:50:57 10° S 18:56:20 68° WSW 19:01:44 10° NNW
Cosmos 783 Rocket 4.5 18:56:32 10° NNW 19:01:53 82° WSW 19:05:35 20° SSE
SPOT 3 Rocket 4.4 18:57:25 10° S 19:02:27 49° W 19:07:30 10° NNW
USA 229 DEB 3.6 18:57:48 10° SSW 19:04:26 64° ESE 19:05:14 59° E
USA 229 3.6 18:57:55 10° SSW 19:04:32 63° ESE 19:05:17 59° E
Cosmos 1833 Rocket 4.2 19:08:30 10° NW 19:13:31 34° WSW 19:18:32 10° SSW
Cosmos 2369 Rocket 3.5 19:08:55 10° S 19:11:27 26° S 19:11:27 26° S
Nadezhda 4 Rocket 4.2 19:10:13 10° NNW 19:16:17 68° W 19:22:20 10° S
Cosmos 1634 Rocket 4.5 19:11:01 10° S 19:15:07 43° SSE 19:15:07 43° SSE
OAO 3 Rocket 4.3 19:18:00 10° WSW 19:21:32 40° SW 19:21:32 40° SW
Timation 2 Rocket 4.2 19:23:09 10° NNW 19:29:53 74° WSW 19:31:12 57° S
Cosmos 1092 Rocket 4.1 19:28:15 10° NNW 19:34:22 71° W 19:40:31 10° S
Thor Agena Rocket 4.4 19:36:31 47° WSW 19:36:31 47° WSW 19:40:36 10° SSW
USA 234 4.1 19:58:41 41° NNW 19:58:45 41° NNW 20:04:45 10° W
CZ-4C R/B 4.4 20:36:57 10° NW 20:43:13 29° WSW 20:43:23 29° WSW
